Regional Weather Roundup
Issued by NWS

Home | Current Version | Previous Version | Graphics & Text | Print | Product List | Glossary Off
Versions: 1 2 3 4 5 6 7 8 9 10 11 12 13 14 15 16 17 18 19 20 21 22 23 24 25 26 27 28 29 30 31 32 33 34 35 36 37 38 39 40 41 42 43 44 45 46 47 48 49 50

522
ASUS43 KDMX 051601
RWRIA

WEATHER ROUNDUP FOR IOWA
NATIONAL WEATHER SERVICE DES MOINES IA
1000 AM CST MON DEC 05 2016

NOTE: "FAIR" INDICATES FEW OR NO CLOUDS BELOW 12,000 FEET WITH NO
SIGNIFICANT WEATHER AND/OR OBSTRUCTIONS TO VISIBILITY.

* - THESE STATIONS ARE NOT NWS STATIONS...THUS NOT UNDER NWS
QUALITY CONTROL.  THEY ALSO DO NOT REPORT WEATHER SUCH
AS PRECIPITATION OR FOG.

IAZ001>003-012>014-020>022-031>034-043>046-051700-
   NORTHWEST IOWA

CITY           SKY/WX    TMP DP  RH WIND       PRES   REMARKS
CARROLL *        N/A     37  34  87 S12       29.75F WCI  30
DENISON *        N/A     37  32  81 S18G26    29.70S WCI  27
SIOUX CITY       N/A     43  31  62 S16       29.65F
SPENCER        PTSUNNY   39  33  79 S20       29.66F WCI  29
$$

IAZ055>058-069>071-079>083-090>094-051700-
   SOUTHWEST IOWA

CITY           SKY/WX    TMP DP  RH WIND       PRES   REMARKS
ATLANTIC *       N/A     39  36  87 S14G21    29.78S WCI  31
COUNCIL BLFS *   N/A     41  32  70 S15G24    29.74F
CRESTON *      SUNNY     37  36  93 S17       29.83S WCI  28
HARLAN  *        N/A     39  34  81 S17       29.78F WCI  30
LAMONI         MOSUNNY   33  33 100 S9        29.86F FOG     WCI  25
RED OAK *      SUNNY     39  36  87 S14       29.80S WCI  31
SHENANDOAH *   SUNNY     41  36  81 S18       29.79F
$$

IAZ047>049-059>061-072>074-084-051700-
   CENTRAL IOWA

CITY           SKY/WX    TMP DP  RH WIND       PRES   REMARKS
AMES             N/A     34  34 100 S9        29.83S WCI  27
ANKENY *         N/A     36 N/A N/A S8        29.86S WCI  29
BOONE *          N/A     36  32  87 S13       29.80S WCI  27
CHARITON *       N/A     39  36  87 S17       29.87S WCI  30
DES MOINES       N/A     39  35  86 S12       29.85S WCI  32
GRINNELL*      FOG       32  32 100 SE10      29.88S VSB 1/2 WCI  24
KNOXVILLE *      N/A     36  34  93 S13       29.87R WCI  27
MARSHALLTOWN   PTSUNNY   33  33 100 SE15      29.84F FOG     WCI  23
NEWTON *       PTSUNNY   34  34 100 S14       29.86S FOG     WCI  24
PELLA *        PTSUNNY   35  35  99 S12       29.90R FOG     WCI  27
PERRY *          N/A     37  36  93 S14       29.80S WCI  29
$$

IAZ004>006-015-016-023>025-035-036-051700-
   NORTH CENTRAL IOWA

CITY           SKY/WX    TMP DP  RH WIND       PRES   REMARKS
ALGONA *         N/A     36  34  93 S17G24    29.73S WCI  25
CLARION *        N/A     36  34  93 S16G22    29.78S WCI  26
ESTHERVILLE    CLOUDY    35  32  88 S15       29.68S WCI  25
FORT DODGE *   PTSUNNY   37  30  75 S12G17    29.77F WCI  30
MASON CITY     CLOUDY    32  31  96 S14       29.82S WCI  22
WEBSTER CITY *   N/A     34  34 100 S15       29.77F WCI  24
IOWA FALLS *   CLOUDY    33  32  97 SE12      29.83R FOG     WCI  24
$$

IAZ007>011-017>019-026>030-037>042-050>054-066-051700-
   NORTHEAST IOWA

CITY           SKY/WX    TMP DP  RH WIND       PRES   REMARKS
CEDAR RAPIDS   FOG       31  31 100 S12       29.92R VSB 1/4 WCI  22
CHARLES CITY * MIX PCPN  32  32 100 SE15      29.83F VSB<1/4 WCI  22
DECORAH *      MIX PCPN  32  32 100 S12       29.86F VSB<1/4 WCI  23
DUBUQUE        SNOW      31  31 100 S15       29.93R VSB<1/4 WCI  20
MONTICELLO *   FOG       32  32 100 S15       29.94R VSB 1/4 WCI  22
OELWEIN *      FOG       32  32 100 SE15      29.88S VSB<1/4 WCI  22
WATERLOO       CLOUDY    32  31  96 SE13      29.87F FOG     WCI  22
$$

IAZ064-065-067-068-078-051700-
   EAST CENTRAL IOWA

CITY           SKY/WX    TMP DP  RH WIND       PRES   REMARKS
DAVENPORT      FOG       31  30  96 SE17      29.96F VSB 3/4 WCI  19
IOWA CITY      FOG       32  31  96 SE12      29.97R VSB 1/2 WCI  23
MUSCATINE *    FOG       32  32 100 S10G18    29.98R VSB 1/2 WCI  24
QUAD CITIES    FOG       33  31  92 S9        29.97F VSB 1/2 WCI  25
$$

IAZ062-063-075>077-085>089-095>099-051700-
   SOUTHEAST IOWA

CITY           SKY/WX    TMP DP  RH WIND       PRES   REMARKS
BURLINGTON     FOG       32  32 100 S12       29.99R VSB 1/4 WCI  23
FAIRFIELD *    FOG       32  32 100 S17       29.95R VSB 1/4 WCI  21
KEOKUK *       FOG       34  34 100 S8        29.99S VSB<1/4 WCI  27
OTTUMWA        CLOUDY    33  32  96 S16       29.92S FOG     WCI  23
WASHINGTON *   FOG       32  32 100 S14       29.96R VSB<1/4 WCI  22
$$

ABBREVIATIONS USED IN REMARKS
   TC - TEMPERATURES IN CELSIUS
  WCI - WIND CHILL INDEX
   HX - HEAT INDEX
  VSB - VISIBILITY
$$





USA.gov is the U.S. government's official web portal to all federal, state and local government web resources and services.